DELTA 1 DEB, 7167

Orbit data source: Space-Track

DELTA 1 DEB, 7167 is space debris in SSO originally from a launch on Tue, 06 Nov 1973 UTC launched from the Air Force Western Test Range (AFWTR). Debris objects in space refer to the collection of defunct objects orbiting the Earth. Examples of debris include non-operational satellites, rocket bodies, and fragments generated from explosions, collisions, or faulty payload assembly.

Loading next visibility...
Identifier
7167, 1973-086EF
Orbit
SSO
Country
Flag of USUS
Related business
Manufacturer
Unknown
Mission
Spacecraft
Bus & Motor
Unknown
Mass
Unknown
Launch date (UTC)
1973-11-06 (53 years ago)
Launch vehicle
Unknown
Launch site
Air Force Western Test Range (AFWTR)
Object type
Payload
Rocket body
Debris
Shape & HBR
Unknown shape, 0.1 m
Radar Cross Section
Medium (>0.1 m² and <1 m²)

Expand to show TLE details & history
Last TLE update: 1 day ago

TLE from 1 day ago
0 DELTA 1 DEB
1 07167U 73086EF  26208.41502756  .00000366  00000-0  25129-2 0  9999
2 07167 101.9848   8.7055 0044364  82.2761 306.0617 12.55429145398940
Epoch: 2026-07-27T09:57Z
TLE epoch observation values (Epoch: 2026-07-27T09:57:38.381Z)
Latitude
27.30445°
Longitude
-92.06366°
Altitude
1,424.586 km
Speed
7.16 km/s
True Right ascension
00h 09m 46s
True Declination
27° 10' 35"
Sunlit
Object was in daylight at epoch
Visualization orbit readout
Latitude
Unknown
Longitude
Unknown
Altitude
Unknown
Speed
Unknown
Apparent Right ascension
Unknown
Apparent Declination
Unknown
Sunlit
N/A
Visualization observer readout
Local Sidereal Time
10:25:34
Azimuth
Unknown
Elevation
Unknown
Doppler factor
Unknown
Orbital elements
Apogee altitude
1,474.104 km
Perigee altitude
1,404.74 km
Semi-major axis
7,817.559 km
Eccentricity
0.00444
Inclination
101.9848°
RAAN
8.7055°
Arg. of periapsis
82.2761°
True anomaly
305.6494°
Mean anomaly
306.0617°
Eccentric anomaly
305.85568°
Mean motion
3.14005 °/min
Orbital period
114.65 mins
BSTAR
0.0025129
Loading maneuver chart data...
Computing Atmospheric mass density...
Loading historical data...
Loading historical data...
Loading historical data...
Loading historical data...
Loading historical data...
Loading historical data...
Loading historical data...

Documentation

Showing up to 5 results
|